Rbgn^[z[y[W
メイン
   新天体発見情報
     Comet C/2019 A9 (PANSTARRS)
投稿するにはまず登録を

スレッド表示 | 新しいものから 前のトピック | 次のトピック | 下へ
投稿者 スレッド
佐藤裕久
投稿日時: 2019-3-1 18:28
モデレータ
登録日: 2005-6-12
居住地: 日本
投稿: 2585
オンライン
Comet C/2019 A9 (PANSTARRS)

1月14.3日UT、Haleakalaにある1.8-m Pan-STARRS1望遠鏡で得た画像から小惑星状天体を
発見した。12月に発見前のPan-STARRS1の観測があった。
2月3.2日、J. KleynaとK. J. Meechは、Mauna Keaにある3.6-m Canada-France-Hawaii望遠鏡
で得たCCD画像は彗星状に見える。東側に少し伸びているように見えた。光度は20.1-20.2等と
測定された。
佐藤英貴氏(東京都文京区, iTelescope 天文台, 0.43-m f/6.8 アストログラフ, Mayhill近郊, 
ニューメキシコ州, 遠隔操作)によると、1月25.1日UT、60秒露出16枚のスタックで、外観は恒
星状に見えた。5".7の円形範囲で測定した光度は20.0等であった。

発見位置は次のとおり、

     2019 UT             R.A. (2000) Decl.       Mag.   Observer
     Jan. 26.31403    9 24 41.56   - 2 44 31.9   18.0   Groeller
          26.31945    9 24 41.46   - 2 44 28.5   17.7     "
          26.32487    9 24 41.12   - 2 44 26.8   17.3     "
          26.33029    9 24 40.90   - 2 44 25.3   17.8     "

楕円軌道軌道要素と位置推算表は次のとおり、

Orbital elements:
    C/2019 A9 (PANSTARRS)
Epoch 2019 July 16.0 TT = JDT 2458680.5
T 2019 July 26.52112 TT                                 MPCW
q   1.4264579            (2000.0)            P               Q
z  +0.0257470      Peri.  237.79752     -0.16007319     +0.07116375
                   Node   278.36749     +0.80754467     -0.56414730
e   0.9632730      Incl.   84.34292     -0.56766908     -0.82260170
From 123 observations 2018 Dec. 18-2019 Feb. 6, mean residual 0".4.

    C/2019 A9 (PANSTARRS)
Epoch 2019 Apr. 27.0 TT = JDT 2458600.5
T 2019 July 26.52066 TT                                 MPCW
q   1.4264510            (2000.0)            P               Q
z  +0.0257183      Peri.  237.79774     -0.16007516     +0.07116138
                   Node   278.36741     +0.80754223     -0.56415075
e   0.9633142      Incl.   84.34272     -0.56767200     -0.82259953
From 123 observations 2018 Dec. 18-2019 Feb. 6, mean residual 0".4.

Ephemeris:
    C/2019 A9 (PANSTARRS)
Date    TT    R. A. (2000) Decl.     Delta      r     Elong.  Phase   m1
2019 01 08    05 25 13.8 +72 03 53   2.2286  2.9373   127.9    15.3  21.4
...
2019 01 23    04 33 05.1 +65 41 45   2.1470  2.7889   121.4    17.5  21.1
...
2019 01 31    04 18 59.7 +61 36 41   2.1328  2.7097   115.7    19.1  21.0
...
2019 02 06    04 12 50.4 +58 26 01   2.1343  2.6503   110.8    20.3  20.9
2019 02 07    04 12 06.8 +57 54 04   2.1355  2.6404   110.0    20.6  20.9
2019 02 08    04 11 27.7 +57 22 08   2.1370  2.6305   109.1    20.8  20.8
...
2019 02 14    04 08 59.5 +54 11 39   2.1507  2.5713   103.8    21.9  20.8
...
2019 02 22    04 08 49.3 +50 04 22   2.1806  2.4926    96.4    23.2  20.7
...
2019 03 09    04 15 10.2 +42 54 36   2.2614  2.3461    82.4    24.8  20.5

(CBET 4610、MPEC 2019-C53)

スレッド表示 | 新しいものから 前のトピック | 次のトピック | トップ

投稿するにはまず登録を
 
© 1999 Tsutomu Seki.